| time (UTC) | temp F | wind direction | speed MPH | gust MPH | rain 1hr in | rain 24hr in | rain mn in | humidity % | barometer mb |
| 20260831092442 | 81 | 245 | 2.0 | 7.0 | 0.00 | 0.00 | 0.00 | 72 | 1012.9 |
| 20260831091937 | 81 | 267 | 0.0 | 8.0 | 0.00 | 0.00 | 0.00 | 72 | 1013.1 |
| 20260831091433 | 81 | 144 | 2.0 | 6.0 | 0.00 | 0.00 | 0.00 | 72 | 1013.0 |
| 20260831090928 | 81 | 193 | 2.0 | 5.0 | 0.00 | 0.00 | 0.00 | 71 | 1012.7 |
| 20260831090424 | 81 | 199 | 3.0 | 6.0 | 0.00 | 0.00 | 0.00 | 71 | 1012.7 |
| 20260831085920 | 81 | 187 | 6.0 | 6.0 | 0.00 | 0.00 | 0.00 | 71 | 1012.7 |
| 20260831085415 | 81 | 209 | 1.0 | 7.0 | 0.00 | 0.00 | 0.00 | 70 | 1012.6 |
| 20260831084914 | 81 | 233 | 1.0 | 5.0 | 0.00 | 0.00 | 0.00 | 70 | 1013.1 |
| 20260831084410 | 81 | 180 | 2.0 | 7.0 | 0.00 | 0.00 | 0.00 | 70 | 1012.8 |
| 20260831083907 | 81 | 196 | 0.0 | 5.0 | 0.00 | 0.00 | 0.00 | 69 | 1012.7 |
| 20260831083402 | 81 | 204 | 3.0 | 5.0 | 0.00 | 0.00 | 0.00 | 69 | 1012.7 |
| 20260831082901 | 82 | 202 | 2.0 | 7.0 | 0.00 | 0.00 | 0.00 | 68 | 1012.7 |
| 20260831082401 | 82 | 208 | 2.0 | 6.0 | 0.00 | 0.00 | 0.00 | 68 | 1012.7 |
| 20260831081856 | 82 | 220 | 2.0 | 7.0 | 0.00 | 0.00 | 0.00 | 67 | 1012.6 |
| 20260831081351 | 82 | 195 | 0.0 | 5.0 | 0.00 | 0.00 | 0.00 | 67 | 1012.6 |
| 20260831080848 | 82 | 267 | 1.0 | 4.0 | 0.00 | 0.00 | 0.00 | 67 | 1012.8 |
| 20260831080343 | 82 | 208 | 3.0 | 5.0 | 0.00 | 0.00 | 0.00 | 66 | 1012.8 |
| 20260831075838 | 82 | 251 | 0.0 | 4.0 | 0.00 | 0.00 | 0.00 | 65 | 1012.7 |
| 20260831075333 | 82 | 187 | 2.0 | 6.0 | 0.00 | 0.00 | 0.00 | 65 | 1012.9 |
| 20260831074828 | 83 | 225 | 4.0 | 6.0 | 0.00 | 0.00 | 0.00 | 64 | 1012.6 |
| 20260831074327 | 83 | 233 | 2.0 | 6.0 | 0.00 | 0.00 | 0.00 | 64 | 1012.7 |
| 20260831073823 | 83 | 218 | 5.0 | 7.0 | 0.00 | 0.00 | 0.00 | 63 | 1012.7 |
| 20260831073321 | 83 | 216 | 3.0 | 7.0 | 0.00 | 0.00 | 0.00 | 63 | 1012.5 |
| 20260831072817 | 83 | 210 | 2.0 | 7.0 | 0.00 | 0.00 | 0.00 | 62 | 1012.8 |
| 20260831072313 | 83 | 228 | 2.0 | 7.0 | 0.00 | 0.00 | 0.00 | 62 | 1012.7 |
| 20260831071809 | 84 | 222 | 1.0 | 6.0 | 0.00 | 0.00 | 0.00 | 61 | 1012.7 |
| 20260831071308 | 84 | 195 | 5.0 | 6.0 | 0.00 | 0.00 | 0.00 | 61 | 1012.9 |
| 20260831070803 | 84 | 193 | 3.0 | 7.0 | 0.00 | 0.00 | 0.00 | 60 | 1012.6 |
| 20260831070301 | 84 | 196 | 5.0 | 9.0 | 0.00 | 0.00 | 0.00 | 59 | 1012.7 |
| 20260831065800 | 84 | 224 | 2.0 | 8.0 | 0.00 | 0.00 | 0.00 | 59 | 1012.8 |
| 20260831065258 | 85 | 181 | 11.0 | 11.0 | 0.00 | 0.00 | 0.00 | 58 | 1012.6 |
| 20260831064754 | 85 | 189 | 4.0 | 8.0 | 0.00 | 0.00 | 0.00 | 57 | 1012.7 |
| 20260831064249 | 85 | 207 | 4.0 | 9.0 | 0.00 | 0.00 | 0.00 | 57 | 1012.6 |
| 20260831063745 | 85 | 186 | 4.0 | 9.0 | 0.00 | 0.00 | 0.00 | 56 | 1012.8 |
| 20260831063239 | 86 | 189 | 2.0 | 10.0 | 0.00 | 0.00 | 0.00 | 55 | 1012.8 |
| 20260831062734 | 86 | 181 | 3.0 | 11.0 | 0.00 | 0.00 | 0.00 | 55 | 1012.8 |
| 20260831062229 | 86 | 154 | 2.0 | 10.0 | 0.00 | 0.00 | 0.00 | 54 | 1012.7 |
| 20260831061727 | 86 | 191 | 3.0 | 9.0 | 0.00 | 0.00 | 0.00 | 54 | 1012.8 |
| 20260831061223 | 87 | 148 | 4.0 | 14.0 | 0.00 | 0.00 | 0.00 | 53 | 1012.8 |
| 20260831060719 | 87 | 220 | 3.0 | 9.0 | 0.00 | 0.00 | 0.00 | 53 | 1012.8 |
| 20260831060218 | 86 | 216 | 0.0 | 7.0 | 0.00 | 0.00 | 0.00 | 53 | 1012.7 |
| 20260831055713 | 86 | 169 | 3.0 | 8.0 | 0.00 | 0.00 | 0.00 | 53 | 1013.0 |
| 20260831055208 | 86 | 164 | 2.0 | 7.0 | 0.00 | 0.00 | 0.00 | 53 | 1012.8 |
| 20260831054708 | 86 | 204 | 2.0 | 8.0 | 0.00 | 0.00 | 0.00 | 53 | 1012.7 |
| 20260831054202 | 86 | 180 | 3.0 | 6.0 | 0.00 | 0.00 | 0.00 | 52 | 1012.7 |
| 20260831053656 | 86 | 221 | 1.0 | 6.0 | 0.00 | 0.00 | 0.00 | 52 | 1012.8 |
| 20260831053154 | 86 | 209 | 2.0 | 5.0 | 0.00 | 0.00 | 0.00 | 52 | 1012.7 |
| 20260831052649 | 86 | 178 | 2.0 | 4.0 | 0.00 | 0.00 | 0.00 | 52 | 1012.8 |
| 20260831052148 | 86 | 205 | 2.0 | 6.0 | 0.00 | 0.00 | 0.00 | 51 | 1012.6 |
| 20260831051646 | 86 | 147 | 0.0 | 4.0 | 0.00 | 0.00 | 0.00 | 51 | 1012.5 |
| 20260831051145 | 86 | 175 | 3.0 | 4.0 | 0.00 | 0.00 | 0.00 | 50 | 1012.6 |
| 20260831050639 | 87 | 172 | 1.0 | 5.0 | 0.00 | 0.00 | 0.00 | 50 | 1012.9 |
| 20260831050133 | 87 | 191 | 2.0 | 6.0 | 0.00 | 0.00 | 0.00 | 49 | 1012.6 |
| 20260831045633 | 87 | 180 | 6.0 | 6.0 | 0.00 | 0.00 | 0.00 | 49 | 1012.6 |
| 20260831045128 | 87 | 207 | 3.0 | 6.0 | 0.00 | 0.00 | 0.00 | 49 | 1012.3 |
| 20260831044623 | 87 | 165 | 2.0 | 9.0 | 0.00 | 0.00 | 0.00 | 49 | 1012.4 |
| 20260831044118 | 87 | 191 | 3.0 | 6.0 | 0.00 | 0.00 | 0.00 | 49 | 1012.5 |
| 20260831043613 | 87 | 232 | 2.0 | 5.0 | 0.00 | 0.00 | 0.00 | 48 | 1012.2 |
| 20260831043103 | 87 | 202 | 0.0 | 5.0 | 0.00 | 0.00 | 0.00 | 48 | 1012.5 |
| 20260831042602 | 87 | 194 | 2.0 | 5.0 | 0.00 | 0.00 | 0.00 | 48 | 1012.3 |
| 20260831042057 | 88 | 170 | 1.0 | 6.0 | 0.00 | 0.00 | 0.00 | 47 | 1012.6 |
| 20260831041552 | 88 | 226 | 1.0 | 5.0 | 0.00 | 0.00 | 0.00 | 47 | 1012.4 |
| 20260831041051 | 88 | 181 | 0.0 | 7.0 | 0.00 | 0.00 | 0.00 | 47 | 1012.3 |
| 20260831040546 | 88 | 195 | 2.0 | 4.0 | 0.00 | 0.00 | 0.00 | 47 | 1012.3 |
| 20260831040045 | 88 | 171 | 4.0 | 7.0 | 0.00 | 0.00 | 0.00 | 46 | 1012.3 |
| 20260831035538 | 88 | 163 | 4.0 | 5.0 | 0.00 | 0.00 | 0.00 | 46 | 1012.3 |
| 20260831035033 | 88 | 215 | 3.0 | 5.0 | 0.00 | 0.00 | 0.00 | 46 | 1012.2 |
| 20260831034533 | 89 | 159 | 2.0 | 7.0 | 0.00 | 0.00 | 0.00 | 45 | 1012.3 |
| 20260831034028 | 89 | 195 | 0.0 | 5.0 | 0.00 | 0.00 | 0.00 | 45 | 1012.3 |
| 20260831033524 | 89 | 187 | 3.0 | 7.0 | 0.00 | 0.00 | 0.00 | 45 | 1012.1 |
| 20260831033019 | 89 | 182 | 2.0 | 5.0 | 0.00 | 0.00 | 0.00 | 45 | 1012.2 |
| 20260831032518 | 89 | 173 | 2.0 | 5.0 | 0.00 | 0.00 | 0.00 | 45 | 1012.2 |
| 20260831032014 | 89 | 231 | 0.0 | 7.0 | 0.00 | 0.00 | 0.00 | 45 | 1012.1 |
| 20260831031514 | 88 | 173 | 1.0 | 4.0 | 0.00 | 0.00 | 0.00 | 45 | 1012.0 |
| 20260831031013 | 89 | 120 | 0.0 | 5.0 | 0.00 | 0.00 | 0.00 | 45 | 1012.1 |
| 20260831030512 | 90 | 174 | 0.0 | 6.0 | 0.00 | 0.00 | 0.00 | 43 | 1012.0 |
| 20260831030011 | 89 | 158 | 3.0 | 7.0 | 0.00 | 0.00 | 0.00 | 43 | 1011.9 |
| 20260831025504 | 89 | 193 | 3.0 | 7.0 | 0.00 | 0.00 | 0.00 | 43 | 1012.0 |
| 20260831024959 | 89 | 190 | 3.0 | 4.0 | 0.00 | 0.00 | 0.00 | 43 | 1012.0 |
| 20260831024454 | 90 | 195 | 2.0 | 4.0 | 0.00 | 0.00 | 0.00 | 42 | 1012.0 |
| 20260831023949 | 91 | 211 | 1.0 | 8.0 | 0.00 | 0.00 | 0.00 | 42 | 1011.8 |
| 20260831023447 | 91 | 161 | 5.0 | 6.0 | 0.00 | 0.00 | 0.00 | 41 | 1011.8 |
| 20260831022942 | 91 | 166 | 4.0 | 7.0 | 0.00 | 0.00 | 0.00 | 41 | 1011.5 |
| 20260831022441 | 91 | 153 | 2.0 | 5.0 | 0.00 | 0.00 | 0.00 | 41 | 1011.5 |
| 20260831021936 | 91 | 177 | 2.0 | 5.0 | 0.00 | 0.00 | 0.00 | 41 | 1011.7 |
| 20260831021435 | 91 | 166 | 1.0 | 6.0 | 0.00 | 0.00 | 0.00 | 40 | 1011.5 |
| 20260831020931 | 91 | 182 | 3.0 | 6.0 | 0.00 | 0.00 | 0.00 | 40 | 1011.2 |
| 20260831020431 | 91 | 176 | 1.0 | 4.0 | 0.00 | 0.00 | 0.00 | 40 | 1011.5 |
| 20260831015926 | 91 | 209 | 1.0 | 4.0 | 0.00 | 0.00 | 0.00 | 40 | 1011.2 |
| 20260831015422 | 91 | 201 | 0.0 | 4.0 | 0.00 | 0.00 | 0.00 | 40 | 1011.2 |
| 20260831014917 | 91 | 197 | 0.0 | 6.0 | 0.00 | 0.00 | 0.00 | 39 | 1011.1 |
| 20260831014417 | 91 | 180 | 0.0 | 3.0 | 0.00 | 0.00 | 0.00 | 39 | 1011.1 |
| 20260831013913 | 91 | 194 | 0.0 | 2.0 | 0.00 | 0.00 | 0.00 | 39 | 1010.9 |
| 20260831013408 | 91 | 169 | 0.0 | 2.0 | 0.00 | 0.00 | 0.00 | 39 | 1011.0 |
| 20260831012902 | 92 | 236 | 0.0 | 3.0 | 0.00 | 0.00 | 0.00 | 38 | 1010.7 |
| 20260831012357 | 92 | 181 | 1.0 | 3.0 | 0.00 | 0.00 | 0.00 | 38 | 1010.9 |
| 20260831011852 | 93 | 191 | 0.0 | 3.0 | 0.00 | 0.00 | 0.00 | 38 | 1011.0 |
| 20260831011346 | 93 | 185 | 0.0 | 5.0 | 0.00 | 0.00 | 0.00 | 37 | 1011.1 |
| 20260831010837 | 93 | 169 | 3.0 | 4.0 | 0.00 | 0.00 | 0.00 | 37 | 1010.8 |
| 20260831010336 | 93 | 200 | 2.0 | 5.0 | 0.00 | 0.00 | 0.00 | 37 | 1011.1 |
| 20260831005832 | 94 | 167 | 3.0 | 5.0 | 0.00 | 0.00 | 0.00 | 36 | 1010.9 |
| 20260831005328 | 95 | 180 | 2.0 | 5.0 | 0.00 | 0.00 | 0.00 | 36 | 1010.8 |
| 20260831004822 | 95 | 205 | 2.0 | 4.0 | 0.00 | 0.00 | 0.00 | 35 | 1010.8 |
| 20260831004318 | 96 | 204 | 2.0 | 4.0 | 0.00 | 0.00 | 0.00 | 34 | 1011.0 |
| 20260831003813 | 96 | 200 | 1.0 | 7.0 | 0.00 | 0.00 | 0.00 | 34 | 1010.8 |
| 20260831003310 | 96 | 161 | 3.0 | 6.0 | 0.00 | 0.00 | 0.00 | 33 | 1011.0 |
| 20260831002809 | 97 | 174 | 5.0 | 7.0 | 0.00 | 0.00 | 0.00 | 32 | 1011.0 |
| 20260831002306 | 97 | 220 | 3.0 | 6.0 | 0.00 | 0.00 | 0.00 | 32 | 1010.9 |
| 20260831001759 | 98 | 170 | 4.0 | 9.0 | 0.00 | 0.00 | 0.00 | 31 | 1010.9 |
| 20260831001253 | 98 | 177 | 3.0 | 7.0 | 0.00 | 0.00 | 0.00 | 31 | 1010.9 |
| 20260831000750 | 98 | 182 | 2.0 | 7.0 | 0.00 | 0.00 | 0.00 | 31 | 1011.4 |
| 20260831000245 | 98 | 154 | 3.0 | 10.0 | 0.00 | 0.00 | 0.00 | 31 | 1011.0 |
| 20260830235744 | 98 | 177 | 6.0 | 16.0 | 0.00 | 0.00 | 0.00 | 31 | 1011.2 |
| 20260830235239 | 99 | 160 | 5.0 | 9.0 | 0.00 | 0.00 | 0.00 | 31 | 1011.3 |
| 20260830234733 | 99 | 160 | 5.0 | 9.0 | 0.00 | 0.00 | 0.00 | 31 | 1011.3 |
| 20260830234230 | 99 | 162 | 4.0 | 9.0 | 0.00 | 0.00 | 0.00 | 30 | 1011.3 |
| 20260830233725 | 99 | 200 | 4.0 | 7.0 | 0.00 | 0.00 | 0.00 | 29 | 1011.4 |
| 20260830233221 | 99 | 169 | 10.0 | 12.0 | 0.00 | 0.00 | 0.00 | 29 | 1011.4 |
| 20260830232716 | 99 | 170 | 3.0 | 11.0 | 0.00 | 0.00 | 0.00 | 29 | 1011.7 |
| 20260830232211 | 100 | 192 | 2.0 | 8.0 | 0.00 | 0.00 | 0.00 | 28 | 1011.5 |
| 20260830231708 | 99 | 180 | 3.0 | 13.0 | 0.00 | 0.00 | 0.00 | 29 | 1011.4 |
| 20260830231207 | 100 | 160 | 4.0 | 16.0 | 0.00 | 0.00 | 0.00 | 28 | 1011.7 |
| 20260830230702 | 100 | 149 | 3.0 | 14.0 | 0.00 | 0.00 | 0.00 | 28 | 1011.7 |
| 20260830230157 | 100 | 147 | 4.0 | 7.0 | 0.00 | 0.00 | 0.00 | 28 | 1011.7 |
| 20260830225652 | 100 | 197 | 4.0 | 10.0 | 0.00 | 0.00 | 0.00 | 29 | 1011.8 |
| 20260830225151 | 100 | 37 | 1.0 | 13.0 | 0.00 | 0.00 | 0.00 | 29 | 1012.0 |
| 20260830224650 | 100 | 132 | 7.0 | 13.0 | 0.00 | 0.00 | 0.00 | 30 | 1012.0 |
| 20260830224147 | 100 | 176 | 5.0 | 11.0 | 0.00 | 0.00 | 0.00 | 31 | 1011.9 |
| 20260830223643 | 100 | 155 | 5.0 | 11.0 | 0.00 | 0.00 | 0.00 | 31 | 1012.0 |
| 20260830223138 | 100 | 169 | 6.0 | 17.0 | 0.00 | 0.00 | 0.00 | 31 | 1012.0 |
| 20260830222633 | 100 | 162 | 18.0 | 18.0 | 0.00 | 0.00 | 0.00 | 31 | 1012.1 |
| 20260830222128 | 100 | 163 | 9.0 | 12.0 | 0.00 | 0.00 | 0.00 | 31 | 1011.9 |
| 20260830221623 | 100 | 141 | 3.0 | 16.0 | 0.00 | 0.00 | 0.00 | 30 | 1012.1 |
| 20260830221114 | 101 | 183 | 8.0 | 9.0 | 0.00 | 0.00 | 0.00 | 29 | 1011.9 |
| 20260830220609 | 99 | 132 | 6.0 | 9.0 | 0.00 | 0.00 | 0.00 | 31 | 1011.9 |
| 20260830220108 | 99 | 183 | 3.0 | 12.0 | 0.00 | 0.00 | 0.00 | 32 | 1012.0 |
| 20260830215608 | 100 | 161 | 8.0 | 17.0 | 0.00 | 0.00 | 0.00 | 31 | 1012.1 |
| 20260830215102 | 100 | 189 | 13.0 | 15.0 | 0.00 | 0.00 | 0.00 | 30 | 1012.1 |
| 20260830214557 | 100 | 181 | 12.0 | 19.0 | 0.00 | 0.00 | 0.00 | 30 | 1012.2 |
| 20260830214051 | 101 | 157 | 5.0 | 9.0 | 0.00 | 0.00 | 0.00 | 31 | 1012.0 |
| 20260830213545 | 102 | 132 | 4.0 | 14.0 | 0.00 | 0.00 | 0.00 | 30 | 1012.2 |
| 20260830213041 | 102 | 283 | 3.0 | 13.0 | 0.00 | 0.00 | 0.00 | 27 | 1012.0 |
| 20260830212537 | 101 | 180 | 10.0 | 20.0 | 0.00 | 0.00 | 0.00 | 28 | 1012.1 |
| 20260830212032 | 102 | 220 | 3.0 | 9.0 | 0.00 | 0.00 | 0.00 | 27 | 1012.0 |
| 20260830211527 | 102 | 158 | 4.0 | 7.0 | 0.00 | 0.00 | 0.00 | 28 | 1012.4 |
| 20260830211026 | 100 | 174 | 4.0 | 16.0 | 0.00 | 0.00 | 0.00 | 28 | 1012.5 |
| 20260830210521 | 100 | 168 | 8.0 | 14.0 | 0.00 | 0.00 | 0.00 | 28 | 1012.3 |
| 20260830210021 | 100 | 170 | 8.0 | 20.0 | 0.00 | 0.00 | 0.00 | 28 | 1012.5 |
| 20260830205518 | 100 | 162 | 1.0 | 17.0 | 0.00 | 0.00 | 0.00 | 28 | 1012.5 |
| 20260830205014 | 102 | 178 | 6.0 | 10.0 | 0.00 | 0.00 | 0.00 | 27 | 1012.7 |
| 20260830204513 | 102 | 135 | 4.0 | 16.0 | 0.00 | 0.00 | 0.00 | 28 | 1012.7 |
| 20260830204013 | 102 | 155 | 4.0 | 9.0 | 0.00 | 0.00 | 0.00 | 29 | 1012.7 |
| 20260830203509 | 101 | 169 | 8.0 | 12.0 | 0.00 | 0.00 | 0.00 | 29 | 1012.7 |
| 20260830203004 | 100 | 162 | 13.0 | 14.0 | 0.00 | 0.00 | 0.00 | 31 | 1012.7 |
| 20260830202458 | 101 | 169 | 2.0 | 17.0 | 0.00 | 0.00 | 0.00 | 30 | 1012.7 |
| 20260830201954 | 102 | 165 | 7.0 | 13.0 | 0.00 | 0.00 | 0.00 | 31 | 1012.8 |
| 20260830201453 | 101 | 158 | 10.0 | 13.0 | 0.00 | 0.00 | 0.00 | 30 | 1013.0 |
| 20260830200948 | 100 | 150 | 4.0 | 16.0 | 0.00 | 0.00 | 0.00 | 31 | 1013.2 |
| 20260830200442 | 100 | 164 | 7.0 | 10.0 | 0.00 | 0.00 | 0.00 | 32 | 1013.1 |
| 20260830195937 | 99 | 173 | 4.0 | 16.0 | 0.00 | 0.00 | 0.00 | 33 | 1013.2 |
| 20260830195432 | 99 | 151 | 3.0 | 16.0 | 0.00 | 0.00 | 0.00 | 32 | 1013.2 |
| 20260830194930 | 102 | 133 | 3.0 | 13.0 | 0.00 | 0.00 | 0.00 | 31 | 1013.5 |
| 20260830194425 | 100 | 176 | 6.0 | 9.0 | 0.00 | 0.00 | 0.00 | 33 | 1013.3 |
| 20260830193924 | 100 | 257 | 5.0 | 7.0 | 0.00 | 0.00 | 0.00 | 32 | 1013.5 |
| 20260830193423 | 100 | 179 | 5.0 | 15.0 | 0.00 | 0.00 | 0.00 | 31 | 1013.4 |
| 20260830192919 | 101 | 172 | 7.0 | 11.0 | 0.00 | 0.00 | 0.00 | 31 | 1013.2 |
| 20260830192414 | 100 | 130 | 4.0 | 11.0 | 0.00 | 0.00 | 0.00 | 31 | 1013.7 |
| 20260830191914 | 100 | 221 | 3.0 | 10.0 | 0.00 | 0.00 | 0.00 | 33 | 1013.7 |
| 20260830191409 | 99 | 181 | 3.0 | 10.0 | 0.00 | 0.00 | 0.00 | 34 | 1013.7 |
| 20260830190905 | 100 | 169 | 9.0 | 13.0 | 0.00 | 0.00 | 0.00 | 34 | 1013.8 |
| 20260830190400 | 100 | 179 | 10.0 | 14.0 | 0.00 | 0.00 | 0.00 | 33 | 1013.9 |
| 20260830185859 | 98 | 140 | 6.0 | 13.0 | 0.00 | 0.00 | 0.00 | 35 | 1014.0 |
| 20260830185354 | 98 | 122 | 3.0 | 16.0 | 0.00 | 0.00 | 0.00 | 35 | 1014.0 |
| 20260830184849 | 99 | 160 | 11.0 | 15.0 | 0.00 | 0.00 | 0.00 | 35 | 1013.9 |
| 20260830184348 | 98 | 166 | 7.0 | 13.0 | 0.00 | 0.00 | 0.00 | 36 | 1014.1 |
| 20260830183842 | 98 | 169 | 5.0 | 18.0 | 0.00 | 0.00 | 0.00 | 36 | 1014.3 |
| 20260830183336 | 100 | 178 | 13.0 | 14.0 | 0.00 | 0.00 | 0.00 | 34 | 1014.4 |
| 20260830182832 | 98 | 132 | 6.0 | 16.0 | 0.00 | 0.00 | 0.00 | 35 | 1014.5 |
| 20260830182328 | 99 | 186 | 4.0 | 20.0 | 0.00 | 0.00 | 0.00 | 34 | 1014.4 |
| 20260830181824 | 99 | 161 | 9.0 | 14.0 | 0.00 | 0.00 | 0.00 | 33 | 1014.5 |
| 20260830181319 | 98 | 170 | 5.0 | 12.0 | 0.00 | 0.00 | 0.00 | 35 | 1014.5 |
| 20260830180818 | 98 | 202 | 13.0 | 18.0 | 0.00 | 0.00 | 0.00 | 35 | 1014.5 |
| 20260830180313 | 98 | 151 | 11.0 | 14.0 | 0.00 | 0.00 | 0.00 | 35 | 1014.7 |
| 20260830175808 | 98 | 183 | 6.0 | 15.0 | 0.00 | 0.00 | 0.00 | 35 | 1015.0 |
| 20260830175308 | 99 | 215 | 5.0 | 13.0 | 0.00 | 0.00 | 0.00 | 34 | 1014.9 |
| 20260830174803 | 100 | 179 | 4.0 | 9.0 | 0.00 | 0.00 | 0.00 | 34 | 1015.0 |
| 20260830174258 | 98 | 167 | 5.0 | 11.0 | 0.00 | 0.00 | 0.00 | 35 | 1015.3 |
| 20260830173757 | 98 | 200 | 7.0 | 12.0 | 0.00 | 0.00 | 0.00 | 36 | 1015.1 |
| 20260830173253 | 97 | 171 | 6.0 | 15.0 | 0.00 | 0.00 | 0.00 | 37 | 1015.2 |
| 20260830172749 | 97 | 175 | 5.0 | 18.0 | 0.00 | 0.00 | 0.00 | 37 | 1015.4 |
| 20260830172246 | 97 | 193 | 11.0 | 17.0 | 0.00 | 0.00 | 0.00 | 36 | 1015.3 |
| 20260830171741 | 97 | 182 | 3.0 | 11.0 | 0.00 | 0.00 | 0.00 | 38 | 1015.2 |
| 20260830171236 | 96 | 204 | 4.0 | 17.0 | 0.00 | 0.00 | 0.00 | 39 | 1015.5 |
| 20260830170730 | 97 | 168 | 3.0 | 12.0 | 0.00 | 0.00 | 0.00 | 38 | 1015.7 |
| 20260830170230 | 97 | 168 | 10.0 | 17.0 | 0.00 | 0.00 | 0.00 | 37 | 1015.5 |
| 20260830165730 | 97 | 202 | 7.0 | 18.0 | 0.00 | 0.00 | 0.00 | 39 | 1015.7 |
| 20260830165226 | 96 | 162 | 4.0 | 11.0 | 0.00 | 0.00 | 0.00 | 40 | 1015.7 |
| 20260830164722 | 95 | 238 | 14.0 | 15.0 | 0.00 | 0.00 | 0.00 | 42 | 1015.8 |
| 20260830164217 | 96 | 210 | 5.0 | 12.0 | 0.00 | 0.00 | 0.00 | 41 | 1015.9 |
| 20260830163713 | 95 | 186 | 2.0 | 11.0 | 0.00 | 0.00 | 0.00 | 42 | 1015.9 |
| 20260830163209 | 96 | 208 | 7.0 | 11.0 | 0.00 | 0.00 | 0.00 | 41 | 1016.0 |
| 20260830162703 | 95 | 185 | 4.0 | 15.0 | 0.00 | 0.00 | 0.00 | 42 | 1016.0 |
| 20260830162159 | 95 | 172 | 3.0 | 13.0 | 0.00 | 0.00 | 0.00 | 44 | 1015.9 |
| 20260830161654 | 95 | 241 | 3.0 | 11.0 | 0.00 | 0.00 | 0.00 | 43 | 1015.9 |
| 20260830161148 | 94 | 224 | 9.0 | 19.0 | 0.00 | 0.00 | 0.00 | 44 | 1016.1 |
| 20260830160645 | 95 | 224 | 4.0 | 14.0 | 0.00 | 0.00 | 0.00 | 43 | 1016.1 |
| 20260830160139 | 94 | 239 | 2.0 | 10.0 | 0.00 | 0.00 | 0.00 | 46 | 1016.0 |
| 20260830155636 | 93 | 239 | 5.0 | 12.0 | 0.00 | 0.00 | 0.00 | 47 | 1016.1 |
| 20260830155131 | 93 | 174 | 5.0 | 14.0 | 0.00 | 0.00 | 0.00 | 48 | 1015.9 |
| 20260830154626 | 93 | 202 | 9.0 | 12.0 | 0.00 | 0.00 | 0.00 | 49 | 1016.0 |
| 20260830154123 | 93 | 220 | 2.0 | 14.0 | 0.00 | 0.00 | 0.00 | 50 | 1016.0 |
| 20260830153619 | 93 | 197 | 3.0 | 10.0 | 0.00 | 0.00 | 0.00 | 51 | 1015.9 |
| 20260830153119 | 92 | 281 | 3.0 | 11.0 | 0.00 | 0.00 | 0.00 | 53 | 1016.0 |
| 20260830152618 | 91 | 221 | 4.0 | 11.0 | 0.00 | 0.00 | 0.00 | 53 | 1016.0 |
| 20260830152117 | 92 | 179 | 7.0 | 12.0 | 0.00 | 0.00 | 0.00 | 53 | 1016.1 |
| 20260830151612 | 91 | 195 | 5.0 | 10.0 | 0.00 | 0.00 | 0.00 | 54 | 1016.0 |
| 20260830151107 | 91 | 220 | 7.0 | 11.0 | 0.00 | 0.00 | 0.00 | 54 | 1015.9 |
| 20260830150606 | 91 | 202 | 7.0 | 11.0 | 0.00 | 0.00 | 0.00 | 54 | 1016.1 |
| 20260830150101 | 90 | 253 | 3.0 | 8.0 | 0.00 | 0.00 | 0.00 | 56 | 1015.9 |
| 20260830145555 | 89 | 207 | 7.0 | 11.0 | 0.00 | 0.00 | 0.00 | 56 | 1016.0 |
| 20260830145050 | 89 | 190 | 5.0 | 12.0 | 0.00 | 0.00 | 0.00 | 56 | 1015.9 |
| 20260830144546 | 89 | 238 | 3.0 | 9.0 | 0.00 | 0.00 | 0.00 | 59 | 1016.0 |
| 20260830144042 | 89 | 245 | 4.0 | 9.0 | 0.00 | 0.00 | 0.00 | 59 | 1015.9 |
| 20260830143538 | 88 | 224 | 4.0 | 7.0 | 0.00 | 0.00 | 0.00 | 61 | 1016.0 |
| 20260830143035 | 87 | 225 | 3.0 | 9.0 | 0.00 | 0.00 | 0.00 | 63 | 1015.9 |
| 20260830142531 | 87 | 215 | 3.0 | 9.0 | 0.00 | 0.00 | 0.00 | 64 | 1016.1 |
| 20260830142020 | 87 | 204 | 3.0 | 6.0 | 0.00 | 0.00 | 0.00 | 64 | 1016.1 |
| 20260830141516 | 86 | 226 | 3.0 | 6.0 | 0.00 | 0.00 | 0.00 | 66 | 1016.0 |
| 20260830141016 | 86 | 225 | 6.0 | 8.0 | 0.00 | 0.00 | 0.00 | 67 | 1015.7 |
| 20260830140515 | 86 | 255 | 3.0 | 7.0 | 0.00 | 0.00 | 0.00 | 67 | 1015.8 |
| 20260830140011 | 85 | 198 | 4.0 | 7.0 | 0.00 | 0.00 | 0.00 | 69 | 1016.0 |
| 20260830135506 | 85 | 237 | 2.0 | 6.0 | 0.00 | 0.00 | 0.00 | 70 | 1015.8 |
| 20260830135001 | 84 | 221 | 5.0 | 8.0 | 0.00 | 0.00 | 0.00 | 71 | 1015.8 |
| 20260830134457 | 84 | 291 | 1.0 | 8.0 | 0.00 | 0.00 | 0.00 | 71 | 1016.0 |
| 20260830133952 | 84 | 234 | 3.0 | 8.0 | 0.00 | 0.00 | 0.00 | 72 | 1015.8 |
| 20260830133448 | 84 | 234 | 1.0 | 6.0 | 0.00 | 0.00 | 0.00 | 73 | 1015.5 |
| 20260830132943 | 83 | 298 | 0.0 | 5.0 | 0.00 | 0.00 | 0.00 | 73 | 1015.9 |
| 20260830132439 | 83 | 207 | 5.0 | 6.0 | 0.00 | 0.00 | 0.00 | 74 | 1015.8 |
| 20260830131938 | 82 | 238 | 3.0 | 5.0 | 0.00 | 0.00 | 0.00 | 75 | 1015.5 |
| 20260830131438 | 82 | 188 | 2.0 | 5.0 | 0.00 | 0.00 | 0.00 | 76 | 1015.3 |
| 20260830130932 | 81 | 236 | 2.0 | 6.0 | 0.00 | 0.00 | 0.00 | 77 | 1015.4 |
| 20260830130428 | 81 | 210 | 4.0 | 6.0 | 0.00 | 0.00 | 0.00 | 78 | 1015.4 |
| 20260830125927 | 80 | 232 | 3.0 | 5.0 | 0.00 | 0.00 | 0.00 | 79 | 1015.2 |
| 20260830125423 | 80 | 231 | 3.0 | 5.0 | 0.00 | 0.00 | 0.00 | 79 | 1015.2 |
| 20260830124920 | 80 | 229 | 2.0 | 4.0 | 0.00 | 0.00 | 0.00 | 80 | 1015.1 |
| 20260830124416 | 79 | 240 | 2.0 | 4.0 | 0.00 | 0.00 | 0.00 | 80 | 1015.3 |
| 20260830123912 | 79 | 247 | 2.0 | 4.0 | 0.00 | 0.00 | 0.00 | 81 | 1015.3 |
| 20260830123409 | 78 | 247 | 1.0 | 3.0 | 0.00 | 0.00 | 0.00 | 81 | 1015.1 |
| 20260830122906 | 78 | 239 | 2.0 | 4.0 | 0.00 | 0.00 | 0.00 | 82 | 1014.9 |
| 20260830122401 | 78 | 199 | 1.0 | 4.0 | 0.00 | 0.00 | 0.00 | 82 | 1014.9 |
| 20260830121856 | 78 | 266 | 1.0 | 5.0 | 0.00 | 0.00 | 0.00 | 83 | 1014.9 |
| 20260830121356 | 77 | 287 | 1.0 | 3.0 | 0.00 | 0.00 | 0.00 | 83 | 1015.0 |
| 20260830120851 | 77 | 240 | 2.0 | 3.0 | 0.00 | 0.00 | 0.00 | 83 | 1014.5 |
| 20260830120346 | 77 | 224 | 1.0 | 3.0 | 0.00 | 0.00 | 0.00 | 83 | 1014.6 |
| 20260830115842 | 77 | 254 | 1.0 | 3.0 | 0.00 | 0.00 | 0.00 | 82 | 1014.5 |
| 20260830115339 | 78 | 227 | 2.0 | 4.0 | 0.00 | 0.00 | 0.00 | 82 | 1014.7 |
| 20260830114834 | 78 | 206 | 2.0 | 3.0 | 0.00 | 0.00 | 0.00 | 82 | 1014.4 |
| 20260830114330 | 78 | 231 | 1.0 | 4.0 | 0.00 | 0.00 | 0.00 | 81 | 1014.3 |
| 20260830113825 | 78 | 274 | 1.0 | 4.0 | 0.00 | 0.00 | 0.00 | 81 | 1014.3 |
| 20260830113320 | 78 | 232 | 0.0 | 3.0 | 0.00 | 0.00 | 0.00 | 81 | 1014.4 |
| 20260830112816 | 78 | 232 | 1.0 | 4.0 | 0.00 | 0.00 | 0.00 | 80 | 1014.5 |
| 20260830112311 | 78 | 262 | 2.0 | 5.0 | 0.00 | 0.00 | 0.00 | 80 | 1014.3 |
| 20260830111807 | 78 | 236 | 1.0 | 5.0 | 0.00 | 0.00 | 0.00 | 79 | 1014.4 |
| 20260830111303 | 79 | 237 | 0.0 | 5.0 | 0.00 | 0.00 | 0.00 | 79 | 1014.3 |
| 20260830110802 | 79 | 193 | 3.0 | 5.0 | 0.00 | 0.00 | 0.00 | 79 | 1014.3 |
| 20260830110259 | 79 | 232 | 2.0 | 5.0 | 0.00 | 0.00 | 0.00 | 79 | 1014.0 |
| 20260830105757 | 79 | 207 | 2.0 | 5.0 | 0.00 | 0.00 | 0.00 | 79 | 1014.1 |
| 20260830105253 | 79 | 247 | 1.0 | 6.0 | 0.00 | 0.00 | 0.00 | 78 | 1014.4 |
| 20260830104744 | 79 | 250 | 1.0 | 3.0 | 0.00 | 0.00 | 0.00 | 78 | 1014.0 |
| 20260830104241 | 79 | 189 | 3.0 | 4.0 | 0.00 | 0.00 | 0.00 | 78 | 1014.0 |
| 20260830103740 | 79 | 213 | 1.0 | 3.0 | 0.00 | 0.00 | 0.00 | 78 | 1014.2 |
| 20260830103235 | 79 | 207 | 3.0 | 5.0 | 0.00 | 0.00 | 0.00 | 77 | 1013.8 |
| 20260830102733 | 79 | 244 | 2.0 | 5.0 | 0.00 | 0.00 | 0.00 | 77 | 1014.1 |
| 20260830102230 | 79 | 203 | 3.0 | 4.0 | 0.00 | 0.00 | 0.00 | 77 | 1014.1 |
| 20260830101725 | 79 | 246 | 2.0 | 3.0 | 0.00 | 0.00 | 0.00 | 76 | 1014.0 |
| 20260830101221 | 79 | 191 | 0.0 | 5.0 | 0.00 | 0.00 | 0.00 | 76 | 1014.0 |
| 20260830100714 | 79 | 230 | 4.0 | 5.0 | 0.00 | 0.00 | 0.00 | 76 | 1013.8 |
| 20260830100209 | 79 | 176 | 2.0 | 3.0 | 0.00 | 0.00 | 0.00 | 75 | 1014.0 |
| 20260830095708 | 79 | 185 | 3.0 | 4.0 | 0.00 | 0.00 | 0.00 | 74 | 1014.2 |
| 20260830095204 | 79 | 241 | 2.0 | 4.0 | 0.00 | 0.00 | 0.00 | 74 | 1014.2 |
| 20260830094659 | 79 | 229 | 2.0 | 4.0 | 0.00 | 0.00 | 0.00 | 74 | 1013.9 |
| 20260830094155 | 79 | 226 | 2.0 | 4.0 | 0.00 | 0.00 | 0.00 | 73 | 1013.8 |
| 20260830093650 | 80 | 210 | 2.0 | 4.0 | 0.00 | 0.00 | 0.00 | 73 | 1014.0 |
| 20260830093146 | 80 | 226 | 1.0 | 3.0 | 0.00 | 0.00 | 0.00 | 72 | 1013.9 |
| 20260830092640 | 80 | 235 | 0.0 | 5.0 | 0.00 | 0.00 | 0.00 | 72 | 1014.1 |